Time,TemperatureF,DewpointF,PressureIn,WindDirection,WindDirectionDegrees,WindSpeedMPH,WindSpeedGustMPH,Humidity,HourlyPrecipIn,Conditions,Clouds,dailyrainin,SoftwareType,DateUTC
2013-03-22 00:00:00,55.2,47.1,29.93,SSW,208,0.0,2.0,74,0.00,,,0.00,VWS V14.01,2013-03-22 05:00:00,
2013-03-22 00:02:00,55.1,47.0,29.93,SSW,208,0.0,0.0,74,0.00,,,0.00,VWS V14.01,2013-03-22 05:02:00,
2013-03-22 00:07:00,54.7,46.9,29.93,SSW,212,0.0,0.0,75,0.00,,,0.00,VWS V14.01,2013-03-22 05:07:00,
2013-03-22 00:12:00,54.4,47.0,29.93,SW,231,1.0,1.0,76,0.00,,,0.00,VWS V14.01,2013-03-22 05:12:00,
2013-03-22 00:17:00,54.4,47.0,29.93,SW,236,1.0,2.0,76,0.00,,,0.00,VWS V14.01,2013-03-22 05:17:00,
2013-03-22 00:22:00,54.5,47.1,29.94,SW,216,1.0,2.0,76,0.00,,,0.00,VWS V14.01,2013-03-22 05:22:00,
2013-03-22 00:27:00,54.7,47.3,29.94,SW,230,1.0,2.0,76,0.00,,,0.00,VWS V14.01,2013-03-22 05:27:00,
2013-03-22 00:30:00,54.8,47.4,29.94,SW,226,1.0,2.0,76,0.00,,,0.00,VWS V14.01,2013-03-22 05:30:00,
2013-03-22 00:32:00,54.8,47.4,29.93,SW,224,1.0,1.0,76,0.00,,,0.00,VWS V14.01,2013-03-22 05:32:00,
2013-03-22 00:37:00,54.7,46.9,29.93,SW,226,1.0,2.0,75,0.00,,,0.00,VWS V14.01,2013-03-22 05:37:00,
2013-03-22 00:42:00,54.6,47.2,29.93,WSW,238,2.0,2.0,76,0.00,,,0.00,VWS V14.01,2013-03-22 05:42:00,
2013-03-22 00:48:00,54.4,47.0,29.93,SW,236,2.0,2.0,76,0.00,,,0.00,VWS V14.01,2013-03-22 05:48:00,
2013-03-22 00:53:00,54.0,47.0,29.93,WSW,242,2.0,2.0,77,0.00,,,0.00,VWS V14.01,2013-03-22 05:53:00,
2013-03-22 00:58:00,53.6,46.9,29.93,West,260,2.0,2.0,78,0.00,,,0.00,VWS V14.01,2013-03-22 05:58:00,
2013-03-22 01:00:00,53.5,46.8,29.93,West,260,2.0,2.0,78,0.00,,,0.00,VWS V14.01,2013-03-22 06:00:00,
2013-03-22 01:03:00,53.4,47.1,29.93,West,259,2.0,2.0,79,0.00,,,0.00,VWS V14.01,2013-03-22 06:03:00,
2013-03-22 01:08:00,52.9,46.6,29.93,West,264,2.0,2.0,79,0.00,,,0.00,VWS V14.01,2013-03-22 06:08:00,
2013-03-22 01:13:00,51.9,46.3,29.93,West,263,2.0,3.0,81,0.00,,,0.00,VWS V14.01,2013-03-22 06:13:00,
2013-03-22 01:18:00,51.1,46.1,29.93,West,273,1.0,3.0,83,0.00,,,0.00,VWS V14.01,2013-03-22 06:18:00,
2013-03-22 01:23:00,50.6,46.3,29.94,West,270,3.0,3.0,85,0.00,,,0.00,VWS V14.01,2013-03-22 06:23:00,
2013-03-22 01:28:00,50.3,46.3,29.94,West,276,2.0,4.0,86,0.00,,,0.00,VWS V14.01,2013-03-22 06:28:00,
2013-03-22 01:30:00,50.2,46.5,29.94,West,280,3.0,4.0,87,0.00,,,0.00,VWS V14.01,2013-03-22 06:30:00,
2013-03-22 01:33:00,50.1,46.4,29.94,WNW,284,2.0,3.0,87,0.00,,,0.00,VWS V14.01,2013-03-22 06:33:00,
2013-03-22 01:38:00,50.1,46.7,29.93,West,278,1.0,3.0,88,0.00,,,0.00,VWS V14.01,2013-03-22 06:38:00,
2013-03-22 01:43:00,50.0,46.6,29.93,West,281,2.0,3.0,88,0.00,,,0.00,VWS V14.01,2013-03-22 06:43:00,
2013-03-22 01:48:00,50.0,46.6,29.93,West,273,1.0,3.0,88,0.00,,,0.00,VWS V14.01,2013-03-22 06:48:00,
2013-03-22 01:53:00,50.0,46.6,29.93,West,278,2.0,3.0,88,0.00,,,0.00,VWS V14.01,2013-03-22 06:53:00,
2013-03-22 01:57:00,49.9,46.5,29.93,West,281,2.0,3.0,88,0.00,,,0.00,VWS V14.01,2013-03-22 06:57:00,
2013-03-22 02:00:00,49.9,46.5,29.93,West,274,2.0,3.0,88,0.00,,,0.00,VWS V14.01,2013-03-22 07:00:00,
2013-03-22 02:02:00,49.9,46.5,29.93,WNW,284,1.0,2.0,88,0.00,,,0.00,VWS V14.01,2013-03-22 07:02:00,
2013-03-22 02:07:00,49.9,46.5,29.93,West,266,2.0,3.0,88,0.00,,,0.00,VWS V14.01,2013-03-22 07:07:00,
2013-03-22 02:12:00,49.9,46.8,29.92,WNW,283,2.0,3.0,89,0.00,,,0.00,VWS V14.01,2013-03-22 07:12:00,
2013-03-22 02:17:00,49.8,46.7,29.92,WNW,283,2.0,3.0,89,0.00,,,0.00,VWS V14.01,2013-03-22 07:17:00,
2013-03-22 02:22:00,49.7,46.9,29.92,West,281,2.0,3.0,90,0.00,,,0.00,VWS V14.01,2013-03-22 07:22:00,
2013-03-22 02:27:00,49.8,47.0,29.92,West,274,1.0,3.0,90,0.00,,,0.00,VWS V14.01,2013-03-22 07:27:00,
2013-03-22 02:30:00,49.8,47.0,29.92,West,281,1.0,3.0,90,0.00,,,0.00,VWS V14.01,2013-03-22 07:30:00,
2013-03-22 02:32:00,49.9,47.1,29.92,West,277,1.0,2.0,90,0.00,,,0.00,VWS V14.01,2013-03-22 07:32:00,
2013-03-22 02:37:00,49.9,47.1,29.92,West,267,1.0,2.0,90,0.00,,,0.00,VWS V14.01,2013-03-22 07:37:00,
2013-03-22 02:42:00,49.8,47.0,29.92,West,278,2.0,2.0,90,0.00,,,0.00,VWS V14.01,2013-03-22 07:42:00,
2013-03-22 02:47:00,49.9,47.4,29.91,West,262,2.0,3.0,91,0.00,,,0.00,VWS V14.01,2013-03-22 07:47:00,
2013-03-22 02:52:00,50.0,47.2,29.91,WSW,253,2.0,3.0,90,0.00,,,0.00,VWS V14.01,2013-03-22 07:52:00,
2013-03-22 02:57:00,50.0,47.2,29.91,West,260,1.0,3.0,90,0.00,,,0.00,VWS V14.01,2013-03-22 07:57:00,
2013-03-22 03:00:00,50.0,47.2,29.91,West,263,1.0,3.0,90,0.00,,,0.00,VWS V14.01,2013-03-22 08:00:00,
2013-03-22 03:02:00,50.0,47.2,29.91,West,273,1.0,2.0,90,0.00,,,0.00,VWS V14.01,2013-03-22 08:02:00,
2013-03-22 03:07:00,50.0,47.2,29.91,WNW,287,2.0,2.0,90,0.00,,,0.00,VWS V14.01,2013-03-22 08:07:00,
2013-03-22 03:12:00,50.2,47.4,29.91,WNW,287,3.0,3.0,90,0.00,,,0.00,VWS V14.01,2013-03-22 08:12:00,
2013-03-22 03:17:00,50.2,47.4,29.91,WNW,282,2.0,3.0,90,0.00,,,0.00,VWS V14.01,2013-03-22 08:17:00,
2013-03-22 03:22:00,50.1,47.0,29.91,West,281,1.0,3.0,89,0.00,,,0.00,VWS V14.01,2013-03-22 08:22:00,
2013-03-22 03:27:00,50.2,47.1,29.91,West,278,3.0,3.0,89,0.00,,,0.00,VWS V14.01,2013-03-22 08:27:00,
2013-03-22 03:30:00,50.2,47.1,29.91,WNW,283,2.0,3.0,89,0.00,,,0.00,VWS V14.01,2013-03-22 08:30:00,
2013-03-22 03:32:00,50.2,46.8,29.91,West,277,2.0,2.0,88,0.00,,,0.00,VWS V14.01,2013-03-22 08:32:00,
2013-03-22 03:37:00,50.4,47.0,29.91,West,277,2.0,2.0,88,0.00,,,0.00,VWS V14.01,2013-03-22 08:37:00,
2013-03-22 03:42:00,50.5,46.8,29.91,WNW,283,1.0,3.0,87,0.00,,,0.00,VWS V14.01,2013-03-22 08:42:00,
2013-03-22 03:47:00,50.5,46.8,29.91,West,281,1.0,3.0,87,0.00,,,0.00,VWS V14.01,2013-03-22 08:47:00,
2013-03-22 03:52:00,50.4,46.7,29.92,WNW,282,1.0,3.0,87,0.00,,,0.00,VWS V14.01,2013-03-22 08:52:00,
2013-03-22 03:57:00,50.3,46.9,29.91,WNW,283,2.0,3.0,88,0.00,,,0.00,VWS V14.01,2013-03-22 08:57:00,
2013-03-22 04:00:00,50.3,46.6,29.92,WNW,284,2.0,3.0,87,0.00,,,0.00,VWS V14.01,2013-03-22 09:00:00,
2013-03-22 04:02:00,50.2,46.5,29.92,WNW,283,1.0,2.0,87,0.00,,,0.00,VWS V14.01,2013-03-22 09:02:00,
2013-03-22 04:07:00,50.1,46.4,29.92,West,281,2.0,3.0,87,0.00,,,0.00,VWS V14.01,2013-03-22 09:07:00,
2013-03-22 04:12:00,50.1,46.1,29.92,West,278,2.0,3.0,86,0.00,,,0.00,VWS V14.01,2013-03-22 09:12:00,
2013-03-22 04:17:00,50.1,46.1,29.92,WNW,282,1.0,3.0,86,0.00,,,0.00,VWS V14.01,2013-03-22 09:17:00,
2013-03-22 04:22:00,50.1,46.1,29.92,West,259,1.0,3.0,86,0.00,,,0.00,VWS V14.01,2013-03-22 09:22:00,
2013-03-22 04:27:00,49.9,46.2,29.92,West,273,1.0,3.0,87,0.00,,,0.00,VWS V14.01,2013-03-22 09:27:00,
2013-03-22 04:30:00,49.7,46.0,29.92,West,271,2.0,3.0,87,0.00,,,0.00,VWS V14.01,2013-03-22 09:30:00,
2013-03-22 04:32:00,49.7,46.3,29.92,West,278,2.0,2.0,88,0.00,,,0.00,VWS V14.01,2013-03-22 09:32:00,
2013-03-22 04:37:00,49.6,45.9,29.92,West,274,1.0,2.0,87,0.00,,,0.00,VWS V14.01,2013-03-22 09:37:00,
2013-03-22 04:42:00,49.6,45.9,29.92,West,280,1.0,2.0,87,0.00,,,0.00,VWS V14.01,2013-03-22 09:42:00,
2013-03-22 04:47:00,49.5,45.8,29.92,WNW,293,1.0,2.0,87,0.00,,,0.00,VWS V14.01,2013-03-22 09:47:00,
2013-03-22 04:52:00,49.5,45.5,29.93,WNW,298,1.0,2.0,86,0.00,,,0.00,VWS V14.01,2013-03-22 09:52:00,
2013-03-22 04:57:00,49.3,45.3,29.93,WNW,290,1.0,2.0,86,0.00,,,0.00,VWS V14.01,2013-03-22 09:57:00,
2013-03-22 05:00:00,49.3,45.3,29.93,WNW,288,1.0,2.0,86,0.00,,,0.00,VWS V14.01,2013-03-22 10:00:00,
2013-03-22 05:02:00,49.1,45.1,29.93,WNW,287,2.0,2.0,86,0.00,,,0.00,VWS V14.01,2013-03-22 10:02:00,
2013-03-22 05:07:00,49.0,45.0,29.94,WNW,288,3.0,3.0,86,0.00,,,0.00,VWS V14.01,2013-03-22 10:07:00,
2013-03-22 05:12:00,48.9,44.9,29.94,WNW,287,2.0,3.0,86,0.00,,,0.00,VWS V14.01,2013-03-22 10:12:00,
2013-03-22 05:17:00,48.8,44.8,29.94,West,281,2.0,3.0,86,0.00,,,0.00,VWS V14.01,2013-03-22 10:17:00,
2013-03-22 05:22:00,48.8,44.8,29.94,WNW,288,2.0,3.0,86,0.00,,,0.00,VWS V14.01,2013-03-22 10:22:00,
2013-03-22 05:27:00,48.7,44.4,29.94,WNW,287,3.0,4.0,85,0.00,,,0.00,VWS V14.01,2013-03-22 10:27:00,
2013-03-22 05:30:00,48.7,44.4,29.95,WNW,287,1.0,4.0,85,0.00,,,0.00,VWS V14.01,2013-03-22 10:30:00,
2013-03-22 05:32:00,48.6,44.3,29.95,WNW,287,2.0,2.0,85,0.00,,,0.00,VWS V14.01,2013-03-22 10:32:00,
2013-03-22 05:37:00,48.5,44.2,29.95,WNW,289,2.0,2.0,85,0.00,,,0.00,VWS V14.01,2013-03-22 10:37:00,
2013-03-22 05:42:00,48.3,44.0,29.95,WNW,290,2.0,3.0,85,0.00,,,0.00,VWS V14.01,2013-03-22 10:42:00,
2013-03-22 05:47:00,48.2,43.9,29.96,WNW,293,2.0,3.0,85,0.00,,,0.00,VWS V14.01,2013-03-22 10:47:00,
2013-03-22 05:52:00,48.1,43.8,29.96,WNW,291,1.0,3.0,85,0.00,,,0.00,VWS V14.01,2013-03-22 10:52:00,
2013-03-22 05:57:00,48.0,43.7,29.96,WNW,284,2.0,3.0,85,0.00,,,0.00,VWS V14.01,2013-03-22 10:57:00,
2013-03-22 06:00:00,47.9,43.6,29.96,West,278,1.0,3.0,85,0.00,,,0.00,VWS V14.01,2013-03-22 11:00:00,
2013-03-22 06:02:00,47.9,43.6,29.97,WNW,283,1.0,2.0,85,0.00,,,0.00,VWS V14.01,2013-03-22 11:02:00,
2013-03-22 06:07:00,47.7,43.4,29.97,West,280,2.0,2.0,85,0.00,,,0.00,VWS V14.01,2013-03-22 11:07:00,
2013-03-22 06:12:00,47.6,43.6,29.97,West,280,1.0,2.0,86,0.00,,,0.00,VWS V14.01,2013-03-22 11:12:00,
2013-03-22 06:17:00,47.5,43.5,29.97,WNW,285,1.0,2.0,86,0.00,,,0.00,VWS V14.01,2013-03-22 11:17:00,
2013-03-22 06:22:00,47.5,43.5,29.97,WNW,291,0.0,2.0,86,0.00,,,0.00,VWS V14.01,2013-03-22 11:22:00,
2013-03-22 06:27:00,47.3,43.3,29.97,WNW,291,0.0,2.0,86,0.00,,,0.00,VWS V14.01,2013-03-22 11:27:00,
2013-03-22 06:30:00,47.3,43.3,29.97,WNW,291,0.0,2.0,86,0.00,,,0.00,VWS V14.01,2013-03-22 11:30:00,
2013-03-22 06:32:00,47.4,43.4,29.97,WNW,291,0.0,1.0,86,0.00,,,0.00,VWS V14.01,2013-03-22 11:32:00,
2013-03-22 06:37:00,47.5,43.5,29.98,WNW,291,1.0,1.0,86,0.00,,,0.00,VWS V14.01,2013-03-22 11:37:00,
2013-03-22 06:42:00,47.6,43.6,29.98,WNW,291,1.0,1.0,86,0.00,,,0.00,VWS V14.01,2013-03-22 11:42:00,
2013-03-22 06:47:00,47.7,43.7,29.98,WNW,291,2.0,2.0,86,0.00,,,0.00,VWS V14.01,2013-03-22 11:47:00,
2013-03-22 06:52:00,47.8,43.5,29.99,WNW,284,1.0,2.0,85,0.00,,,0.00,VWS V14.01,2013-03-22 11:52:00,
2013-03-22 06:57:00,48.2,44.2,29.99,NW,317,2.0,3.0,86,0.00,,,0.00,VWS V14.01,2013-03-22 11:57:00,
2013-03-22 07:00:00,48.3,44.0,29.99,NW,311,3.0,3.0,85,0.00,,,0.00,VWS V14.01,2013-03-22 12:00:00,
2013-03-22 07:02:00,48.6,44.3,29.99,NW,312,3.0,3.0,85,0.00,,,0.00,VWS V14.01,2013-03-22 12:02:00,
2013-03-22 07:07:00,49.0,44.4,29.99,NW,326,2.0,3.0,84,0.00,,,0.00,VWS V14.01,2013-03-22 12:07:00,
2013-03-22 07:12:00,49.5,44.9,29.99,NW,322,2.0,3.0,84,0.00,,,0.00,VWS V14.01,2013-03-22 12:12:00,
2013-03-22 07:17:00,50.2,45.2,29.98,NNW,330,0.0,3.0,83,0.00,,,0.00,VWS V14.01,2013-03-22 12:17:00,
2013-03-22 07:22:00,51.0,45.7,29.98,NNW,330,1.0,3.0,82,0.00,,,0.00,VWS V14.01,2013-03-22 12:22:00,
2013-03-22 07:27:00,51.8,46.2,29.99,NNW,330,1.0,3.0,81,0.00,,,0.00,VWS V14.01,2013-03-22 12:27:00,
2013-03-22 07:30:00,52.1,46.5,29.99,NNW,330,0.0,3.0,81,0.00,,,0.00,VWS V14.01,2013-03-22 12:30:00,
2013-03-22 07:32:00,52.6,46.6,29.99,NNW,330,0.0,0.0,80,0.00,,,0.00,VWS V14.01,2013-03-22 12:32:00,
2013-03-22 07:37:00,53.7,47.3,29.99,North,8,1.0,2.0,79,0.00,,,0.00,VWS V14.01,2013-03-22 12:37:00,
2013-03-22 07:42:00,54.8,47.4,29.99,North,6,2.0,3.0,76,0.00,,,0.00,VWS V14.01,2013-03-22 12:42:00,
2013-03-22 07:47:00,55.6,46.7,30.00,NNW,337,1.0,3.0,72,0.00,,,0.00,VWS V14.01,2013-03-22 12:47:00,
2013-03-22 07:52:00,56.2,46.9,30.00,NW,321,2.0,4.0,71,0.00,,,0.00,VWS V14.01,2013-03-22 12:52:00,
2013-03-22 07:57:00,56.9,47.6,30.00,North,5,2.0,4.0,71,0.00,,,0.00,VWS V14.01,2013-03-22 12:57:00,
2013-03-22 08:00:00,57.2,47.9,30.00,NNW,345,3.0,4.0,71,0.00,,,0.00,VWS V14.01,2013-03-22 13:00:00,
2013-03-22 08:02:00,57.7,48.0,30.00,NNE,27,3.0,3.0,70,0.00,,,0.00,VWS V14.01,2013-03-22 13:02:00,
2013-03-22 08:07:00,58.8,48.3,30.00,NNW,346,4.0,4.0,68,0.00,,,0.00,VWS V14.01,2013-03-22 13:07:00,
2013-03-22 08:13:00,59.6,48.2,30.00,North,5,2.0,5.0,66,0.00,,,0.00,VWS V14.01,2013-03-22 13:13:00,
2013-03-22 08:18:00,60.6,48.4,30.00,NNE,27,2.0,5.0,64,0.00,,,0.00,VWS V14.01,2013-03-22 13:18:00,
2013-03-22 08:23:00,61.3,49.0,30.01,NNE,20,2.0,5.0,64,0.00,,,0.00,VWS V14.01,2013-03-22 13:23:00,
2013-03-22 08:28:00,61.7,49.0,30.01,NE,54,1.0,5.0,63,0.00,,,0.00,VWS V14.01,2013-03-22 13:28:00,
2013-03-22 08:30:00,61.9,49.2,30.01,North,4,5.0,5.0,63,0.00,,,0.00,VWS V14.01,2013-03-22 13:30:00,
2013-03-22 08:33:00,62.1,49.8,30.01,NNE,30,3.0,5.0,64,0.00,,,0.00,VWS V14.01,2013-03-22 13:33:00,
2013-03-22 08:37:00,62.4,50.1,30.01,NE,44,1.0,7.0,64,0.00,,,0.00,VWS V14.01,2013-03-22 13:37:00,
2013-03-22 08:42:00,63.1,50.7,30.01,NNE,25,4.0,7.0,64,0.00,,,0.00,VWS V14.01,2013-03-22 13:42:00,
2013-03-22 08:47:00,63.8,51.4,30.01,NNE,33,6.0,7.0,64,0.00,,,0.00,VWS V14.01,2013-03-22 13:47:00,
2013-03-22 08:52:00,64.6,52.6,30.01,NNE,15,5.0,7.0,65,0.00,,,0.00,VWS V14.01,2013-03-22 13:52:00,
2013-03-22 08:58:00,65.1,53.1,30.01,North,358,2.0,7.0,65,0.00,,,0.00,VWS V14.01,2013-03-22 13:58:00,
2013-03-22 09:00:00,65.6,53.5,30.01,NNE,27,4.0,8.0,65,0.00,,,0.00,VWS V14.01,2013-03-22 14:00:00,
2013-03-22 09:02:00,66.0,53.1,30.01,NNE,18,5.0,8.0,63,0.00,,,0.00,VWS V14.01,2013-03-22 14:02:00,
2013-03-22 09:08:00,66.3,52.0,30.01,North,11,6.0,11.0,60,0.00,,,0.00,VWS V14.01,2013-03-22 14:08:00,
2013-03-22 09:13:00,66.6,52.8,30.01,NE,46,6.0,11.0,61,0.00,,,0.00,VWS V14.01,2013-03-22 14:13:00,
2013-03-22 09:18:00,67.0,52.7,30.01,NE,46,3.0,11.0,60,0.00,,,0.00,VWS V14.01,2013-03-22 14:18:00,
2013-03-22 09:22:00,67.5,51.3,30.01,NNW,339,5.0,11.0,56,0.00,,,0.00,VWS V14.01,2013-03-22 14:22:00,
2013-03-22 09:27:00,67.6,51.8,30.01,NNE,33,6.0,11.0,57,0.00,,,0.00,VWS V14.01,2013-03-22 14:27:00,
2013-03-22 09:30:00,67.9,51.6,30.01,NE,34,2.0,11.0,56,0.00,,,0.00,VWS V14.01,2013-03-22 14:30:00,
2013-03-22 09:32:00,68.2,50.9,30.02,NNE,24,3.0,6.0,54,0.00,,,0.00,VWS V14.01,2013-03-22 14:32:00,
2013-03-22 09:37:00,68.5,50.7,30.02,North,354,3.0,7.0,53,0.00,,,0.00,VWS V14.01,2013-03-22 14:37:00,
2013-03-22 09:42:00,68.8,51.5,30.02,NE,50,6.0,9.0,54,0.00,,,0.00,VWS V14.01,2013-03-22 14:42:00,
2013-03-22 09:47:00,68.7,50.4,30.02,NNE,25,7.0,9.0,52,0.00,,,0.00,VWS V14.01,2013-03-22 14:47:00,
2013-03-22 09:52:00,68.9,50.6,30.02,NE,54,8.0,9.0,52,0.00,,,0.00,VWS V14.01,2013-03-22 14:52:00,
2013-03-22 09:57:00,68.9,50.6,30.02,North,5,7.0,9.0,52,0.00,,,0.00,VWS V14.01,2013-03-22 14:57:00,
2013-03-22 10:00:00,69.0,49.6,30.02,NNE,18,4.0,10.0,50,0.00,,,0.00,VWS V14.01,2013-03-22 15:00:00,
2013-03-22 10:02:00,69.0,49.6,30.02,NE,34,8.0,10.0,50,0.00,,,0.00,VWS V14.01,2013-03-22 15:02:00,
2013-03-22 10:07:00,68.8,50.5,30.02,NE,52,8.0,10.0,52,0.00,,,0.00,VWS V14.01,2013-03-22 15:07:00,
2013-03-22 10:12:00,68.6,49.2,30.02,NNE,33,5.0,12.0,50,0.00,,,0.00,VWS V14.01,2013-03-22 15:12:00,
2013-03-22 10:17:00,68.7,48.8,30.03,NE,56,6.0,12.0,49,0.00,,,0.00,VWS V14.01,2013-03-22 15:17:00,
2013-03-22 10:22:00,69.4,50.0,30.02,NNE,23,5.0,12.0,50,0.00,,,0.00,VWS V14.01,2013-03-22 15:22:00,
2013-03-22 10:27:00,69.3,50.9,30.02,ENE,60,4.0,12.0,52,0.00,,,0.00,VWS V14.01,2013-03-22 15:27:00,
2013-03-22 10:30:00,69.4,51.0,30.02,ENE,63,5.0,12.0,52,0.00,,,0.00,VWS V14.01,2013-03-22 15:30:00,
2013-03-22 10:32:00,69.3,50.9,30.02,ENE,61,6.0,10.0,52,0.00,,,0.00,VWS V14.01,2013-03-22 15:32:00,
2013-03-22 10:37:00,69.2,51.4,30.02,NNE,23,5.0,10.0,53,0.00,,,0.00,VWS V14.01,2013-03-22 15:37:00,
2013-03-22 10:42:00,69.1,51.3,30.02,NE,43,5.0,10.0,53,0.00,,,0.00,VWS V14.01,2013-03-22 15:42:00,
2013-03-22 10:47:00,69.3,51.5,30.01,NE,37,5.0,10.0,53,0.00,,,0.00,VWS V14.01,2013-03-22 15:47:00,
2013-03-22 10:52:00,69.8,52.4,30.01,East,81,4.0,10.0,54,0.00,,,0.00,VWS V14.01,2013-03-22 15:52:00,
2013-03-22 10:57:00,70.0,52.1,30.01,ENE,67,3.0,10.0,53,0.00,,,0.00,VWS V14.01,2013-03-22 15:57:00,
2013-03-22 11:00:00,69.9,51.5,30.01,ENE,74,8.0,10.0,52,0.00,,,0.00,VWS V14.01,2013-03-22 16:00:00,
2013-03-22 11:02:00,69.6,52.2,30.01,ENE,73,3.0,9.0,54,0.00,,,0.00,VWS V14.01,2013-03-22 16:02:00,
2013-03-22 11:07:00,70.0,52.6,30.01,East,85,4.0,9.0,54,0.00,,,0.00,VWS V14.01,2013-03-22 16:07:00,
2013-03-22 11:12:00,69.9,53.0,30.01,NNE,33,7.0,9.0,55,0.00,,,0.00,VWS V14.01,2013-03-22 16:12:00,
2013-03-22 11:17:00,70.4,53.0,30.01,ENE,65,5.0,9.0,54,0.00,,,0.00,VWS V14.01,2013-03-22 16:17:00,
2013-03-22 11:35:00,70.3,52.9,30.01,ENE,63,5.0,9.0,54,0.00,,,0.00,VWS V14.01,2013-03-22 16:35:00,
2013-03-22 11:40:00,70.5,54.1,30.00,ENE,57,8.0,9.0,56,0.00,,,0.00,VWS V14.01,2013-03-22 16:40:00,
2013-03-22 11:45:00,70.3,54.4,30.00,East,96,4.0,11.0,57,0.00,,,0.00,VWS V14.01,2013-03-22 16:45:00,
2013-03-22 11:50:00,70.5,54.5,30.00,East,82,6.0,11.0,57,0.00,,,0.00,VWS V14.01,2013-03-22 16:50:00,
2013-03-22 11:55:00,70.6,54.6,30.00,NE,45,7.0,11.0,57,0.00,,,0.00,VWS V14.01,2013-03-22 16:55:00,
2013-03-22 12:00:00,70.3,55.3,30.00,North,11,3.0,9.0,59,0.00,,,0.00,VWS V14.01,2013-03-22 17:00:00,
2013-03-22 12:05:00,70.7,55.2,29.99,ENE,70,4.0,13.0,58,0.00,,,0.00,VWS V14.01,2013-03-22 17:05:00,
2013-03-22 12:10:00,71.0,55.5,29.99,ENE,70,7.0,13.0,58,0.00,,,0.00,VWS V14.01,2013-03-22 17:10:00,
2013-03-22 12:15:00,70.8,54.8,29.99,East,98,10.0,13.0,57,0.00,,,0.00,VWS V14.01,2013-03-22 17:15:00,
2013-03-22 12:20:00,71.0,55.0,29.98,SW,215,6.0,13.0,57,0.00,,,0.00,VWS V14.01,2013-03-22 17:20:00,
2013-03-22 12:25:00,71.8,55.3,29.98,East,85,11.0,13.0,56,0.00,,,0.00,VWS V14.01,2013-03-22 17:25:00,
2013-03-22 12:30:00,71.7,55.7,29.98,East,87,5.0,9.0,57,0.00,,,0.00,VWS V14.01,2013-03-22 17:30:00,
2013-03-22 12:35:00,72.7,55.6,29.98,SE,125,6.0,9.0,55,0.00,,,0.00,VWS V14.01,2013-03-22 17:35:00,
2013-03-22 12:40:00,72.2,55.2,29.98,ESE,107,7.0,12.0,55,0.00,,,0.00,VWS V14.01,2013-03-22 17:40:00,
2013-03-22 12:45:00,72.3,55.2,29.98,ESE,109,6.0,12.0,55,0.00,,,0.00,VWS V14.01,2013-03-22 17:45:00,
2013-03-22 12:50:00,72.5,55.9,29.98,East,96,11.0,13.0,56,0.00,,,0.00,VWS V14.01,2013-03-22 17:50:00,
2013-03-22 12:55:00,72.1,56.0,29.98,East,80,6.0,14.0,57,0.00,,,0.00,VWS V14.01,2013-03-22 17:55:00,
2013-03-22 13:00:00,72.3,56.7,29.98,ESE,122,5.0,5.0,58,0.00,,,0.00,VWS V14.01,2013-03-22 18:00:00,
2013-03-22 13:05:00,72.7,56.6,29.97,ENE,70,6.0,12.0,57,0.00,,,0.00,VWS V14.01,2013-03-22 18:05:00,
2013-03-22 13:10:00,72.0,56.4,29.97,East,98,6.0,14.0,58,0.00,,,0.00,VWS V14.01,2013-03-22 18:10:00,
2013-03-22 13:15:00,72.2,57.6,29.97,ENE,72,11.0,14.0,60,0.00,,,0.00,VWS V14.01,2013-03-22 18:15:00,
2013-03-22 13:20:00,72.9,57.8,29.97,ESE,110,7.0,14.0,59,0.00,,,0.00,VWS V14.01,2013-03-22 18:20:00,
2013-03-22 13:25:00,72.9,57.3,29.97,East,84,8.0,14.0,58,0.00,,,0.00,VWS V14.01,2013-03-22 18:25:00,
2013-03-22 13:30:00,73.1,58.4,29.97,ESE,109,11.0,12.0,60,0.00,,,0.00,VWS V14.01,2013-03-22 18:30:00,
2013-03-22 13:35:00,73.5,58.3,29.96,ENE,70,4.0,12.0,59,0.00,,,0.00,VWS V14.01,2013-03-22 18:35:00,
2013-03-22 13:40:00,73.3,58.1,29.96,East,84,17.0,18.0,59,0.00,,,0.00,VWS V14.01,2013-03-22 18:40:00,
2013-03-22 13:45:00,73.3,58.6,29.95,ESE,105,15.0,18.0,60,0.00,,,0.00,VWS V14.01,2013-03-22 18:45:00,
2013-03-22 13:50:00,72.8,58.1,29.95,East,92,9.0,18.0,60,0.00,,,0.00,VWS V14.01,2013-03-22 18:50:00,
2013-03-22 13:55:00,72.6,58.8,29.95,East,79,13.0,18.0,62,0.00,,,0.00,VWS V14.01,2013-03-22 18:55:00,
2013-03-22 14:00:00,72.3,58.6,29.95,East,101,9.0,12.0,62,0.00,,,0.00,VWS V14.01,2013-03-22 19:00:00,
2013-03-22 14:05:00,72.1,58.8,29.95,SSE,162,6.0,19.0,63,0.00,,,0.00,VWS V14.01,2013-03-22 19:05:00,
2013-03-22 14:10:00,72.5,59.6,29.94,ESE,112,7.0,19.0,64,0.00,,,0.00,VWS V14.01,2013-03-22 19:10:00,
2013-03-22 14:15:00,72.2,59.8,29.95,East,91,10.0,19.0,65,0.00,,,0.00,VWS V14.01,2013-03-22 19:15:00,
2013-03-22 14:20:00,71.6,60.5,29.95,East,84,12.0,19.0,68,0.00,,,0.00,VWS V14.01,2013-03-22 19:20:00,
2013-03-22 14:25:00,71.8,61.9,29.95,SE,127,4.0,19.0,71,0.00,,,0.00,VWS V14.01,2013-03-22 19:25:00,
2013-03-22 14:30:00,72.3,61.2,29.94,East,89,5.0,11.0,68,0.00,,,0.00,VWS V14.01,2013-03-22 19:30:00,
2013-03-22 14:35:00,72.6,61.4,29.94,SE,130,8.0,15.0,68,0.00,,,0.00,VWS V14.01,2013-03-22 19:35:00,
2013-03-22 14:40:00,72.3,61.2,29.94,SE,127,14.0,16.0,68,0.00,,,0.00,VWS V14.01,2013-03-22 19:40:00,
2013-03-22 14:45:00,72.2,60.7,29.93,East,93,14.0,16.0,67,0.00,,,0.00,VWS V14.01,2013-03-22 19:45:00,
2013-03-22 14:50:00,72.3,61.2,29.93,SE,134,13.0,17.0,68,0.00,,,0.00,VWS V14.01,2013-03-22 19:50:00,
2013-03-22 14:55:00,72.3,61.2,29.94,SE,126,5.0,17.0,68,0.00,,,0.00,VWS V14.01,2013-03-22 19:55:00,
2013-03-22 15:00:00,71.8,60.7,29.93,SE,145,13.0,13.0,68,0.00,,,0.00,VWS V14.01,2013-03-22 20:00:00,
2013-03-22 15:05:00,71.5,60.8,29.93,SE,134,11.0,16.0,69,0.00,,,0.00,VWS V14.01,2013-03-22 20:05:00,
2013-03-22 15:10:00,71.5,60.8,29.93,ENE,71,12.0,16.0,69,0.00,,,0.00,VWS V14.01,2013-03-22 20:10:00,
2013-03-22 15:15:00,71.2,60.5,29.93,ESE,111,10.0,18.0,69,0.00,,,0.00,VWS V14.01,2013-03-22 20:15:00,
2013-03-22 15:20:00,71.2,60.1,29.92,SE,129,16.0,18.0,68,0.00,,,0.00,VWS V14.01,2013-03-22 20:20:00,
2013-03-22 15:25:00,71.1,60.0,29.92,SE,136,13.0,18.0,68,0.00,,,0.00,VWS V14.01,2013-03-22 20:25:00,
2013-03-22 15:30:00,70.9,60.2,29.93,SE,145,10.0,12.0,69,0.00,,,0.00,VWS V14.01,2013-03-22 20:30:00,
2013-03-22 15:35:00,70.4,60.6,29.93,ESE,120,5.0,15.0,71,0.00,,,0.00,VWS V14.01,2013-03-22 20:35:00,
2013-03-22 15:40:00,70.0,60.6,29.93,SSE,150,10.0,15.0,72,0.00,,,0.00,VWS V14.01,2013-03-22 20:40:00,
2013-03-22 15:45:00,69.8,60.4,29.93,SE,144,13.0,15.0,72,0.00,,,0.00,VWS V14.01,2013-03-22 20:45:00,
2013-03-22 15:50:00,69.8,60.4,29.92,ESE,118,9.0,15.0,72,0.00,,,0.00,VWS V14.01,2013-03-22 20:50:00,
2013-03-22 15:55:00,69.7,60.3,29.92,SE,139,4.0,15.0,72,0.00,,,0.00,VWS V14.01,2013-03-22 20:55:00,
2013-03-22 16:00:00,69.7,59.9,29.92,SE,129,6.0,6.0,71,0.00,,,0.00,VWS V14.01,2013-03-22 21:00:00,
2013-03-22 16:05:00,69.7,59.9,29.92,SE,127,2.0,11.0,71,0.00,,,0.00,VWS V14.01,2013-03-22 21:05:00,
2013-03-22 16:10:00,69.7,59.5,29.92,SE,127,6.0,13.0,70,0.00,,,0.00,VWS V14.01,2013-03-22 21:10:00,
2013-03-22 16:15:00,69.7,59.9,29.92,East,98,5.0,16.0,71,0.00,,,0.00,VWS V14.01,2013-03-22 21:15:00,
2013-03-22 16:20:00,69.7,59.9,29.92,SE,143,8.0,16.0,71,0.00,,,0.00,VWS V14.01,2013-03-22 21:20:00,
2013-03-22 16:25:00,69.8,60.4,29.92,ESE,121,7.0,16.0,72,0.00,,,0.00,VWS V14.01,2013-03-22 21:25:00,
2013-03-22 16:30:00,69.8,60.4,29.92,SE,134,9.0,9.0,72,0.00,,,0.00,VWS V14.01,2013-03-22 21:30:00,
2013-03-22 16:35:00,69.8,60.4,29.92,ESE,103,9.0,14.0,72,0.00,,,0.00,VWS V14.01,2013-03-22 21:35:00,
2013-03-22 16:40:00,70.0,60.6,29.92,SE,126,2.0,14.0,72,0.00,,,0.00,VWS V14.01,2013-03-22 21:40:00,
2013-03-22 16:45:00,70.2,59.6,29.93,SE,131,8.0,14.0,69,0.00,,,0.00,VWS V14.01,2013-03-22 21:45:00,
2013-03-22 16:50:00,70.4,58.9,29.93,ESE,117,5.0,14.0,67,0.00,,,0.00,VWS V14.01,2013-03-22 21:50:00,
2013-03-22 16:55:00,70.5,58.6,29.92,SE,143,12.0,14.0,66,0.00,,,0.00,VWS V14.01,2013-03-22 21:55:00,
2013-03-22 17:00:00,70.7,58.8,29.92,East,89,6.0,9.0,66,0.00,,,0.00,VWS V14.01,2013-03-22 22:00:00,
2013-03-22 17:05:00,70.8,58.9,29.92,ESE,104,5.0,13.0,66,0.00,,,0.00,VWS V14.01,2013-03-22 22:05:00,
2013-03-22 17:10:00,70.9,59.0,29.92,ESE,122,10.0,14.0,66,0.00,,,0.00,VWS V14.01,2013-03-22 22:10:00,
2013-03-22 17:15:00,71.0,58.7,29.92,ESE,121,7.0,15.0,65,0.00,,,0.00,VWS V14.01,2013-03-22 22:15:00,
2013-03-22 17:20:00,71.1,59.2,29.92,ESE,122,5.0,15.0,66,0.00,,,0.00,VWS V14.01,2013-03-22 22:20:00,
2013-03-22 17:25:00,71.1,58.8,29.92,SE,134,10.0,15.0,65,0.00,,,0.00,VWS V14.01,2013-03-22 22:25:00,
2013-03-22 17:30:00,71.1,58.8,29.93,ESE,117,13.0,13.0,65,0.00,,,0.00,VWS V14.01,2013-03-22 22:30:00,
2013-03-22 17:35:00,71.1,59.2,29.93,ESE,104,8.0,15.0,66,0.00,,,0.00,VWS V14.01,2013-03-22 22:35:00,
2013-03-22 17:40:00,71.2,59.3,29.93,SSE,148,6.0,16.0,66,0.00,,,0.00,VWS V14.01,2013-03-22 22:40:00,
2013-03-22 17:45:00,71.1,59.6,29.92,SE,136,7.0,16.0,67,0.00,,,0.00,VWS V14.01,2013-03-22 22:45:00,
2013-03-22 17:50:00,71.0,59.5,29.93,ESE,121,7.0,16.0,67,0.00,,,0.00,VWS V14.01,2013-03-22 22:50:00,
2013-03-22 17:55:00,71.0,60.3,29.93,SE,129,6.0,16.0,69,0.00,,,0.00,VWS V14.01,2013-03-22 22:55:00,
2013-03-22 18:00:00,71.0,60.3,29.94,SE,124,7.0,9.0,69,0.00,,,0.00,VWS V14.01,2013-03-22 23:00:00,
2013-03-22 18:05:00,71.1,60.8,29.93,SE,136,7.0,9.0,70,0.00,,,0.00,VWS V14.01,2013-03-22 23:05:00,
2013-03-22 18:10:00,71.1,60.4,29.93,SE,130,3.0,15.0,69,0.00,,,0.00,VWS V14.01,2013-03-22 23:10:00,
2013-03-22 18:15:00,71.1,60.8,29.94,SE,145,7.0,15.0,70,0.00,,,0.00,VWS V14.01,2013-03-22 23:15:00,
2013-03-22 18:20:00,71.1,60.8,29.93,SSW,210,2.0,15.0,70,0.00,,,0.00,VWS V14.01,2013-03-22 23:20:00,
2013-03-22 18:25:00,71.1,60.8,29.94,SSE,150,5.0,15.0,70,0.00,,,0.00,VWS V14.01,2013-03-22 23:25:00,
2013-03-22 18:30:00,71.2,60.5,29.94,ESE,113,5.0,8.0,69,0.00,,,0.00,VWS V14.01,2013-03-22 23:30:00,
2013-03-22 18:35:00,71.2,60.9,29.94,SSE,163,4.0,12.0,70,0.00,,,0.00,VWS V14.01,2013-03-22 23:35:00,
2013-03-22 18:40:00,71.2,60.9,29.94,SE,144,3.0,12.0,70,0.00,,,0.00,VWS V14.01,2013-03-22 23:40:00,
2013-03-22 18:45:00,71.2,60.9,29.94,East,95,5.0,12.0,70,0.00,,,0.00,VWS V14.01,2013-03-22 23:45:00,
2013-03-22 18:50:00,71.2,61.3,29.94,SE,127,2.0,12.0,71,0.00,,,0.00,VWS V14.01,2013-03-22 23:50:00,
2013-03-22 18:55:00,71.2,61.3,29.94,South,172,2.0,12.0,71,0.00,,,0.00,VWS V14.01,2013-03-22 23:55:00,
2013-03-22 19:00:00,71.2,61.3,29.95,SSE,155,5.0,7.0,71,0.00,,,0.00,VWS V14.01,2013-03-23 00:00:00,
2013-03-22 19:05:00,71.2,61.3,29.95,ESE,114,1.0,8.0,71,0.00,,,0.00,VWS V14.01,2013-03-23 00:05:00,
2013-03-22 19:10:00,71.2,61.3,29.96,SE,132,2.0,8.0,71,0.00,,,0.00,VWS V14.01,2013-03-23 00:10:00,
2013-03-22 19:15:00,71.2,61.7,29.96,South,188,0.0,8.0,72,0.00,,,0.00,VWS V14.01,2013-03-23 00:15:00,
2013-03-22 19:20:00,71.2,61.7,29.97,NNE,25,1.0,8.0,72,0.00,,,0.00,VWS V14.01,2013-03-23 00:20:00,
2013-03-22 19:25:00,71.2,61.7,29.97,East,81,2.0,8.0,72,0.00,,,0.00,VWS V14.01,2013-03-23 00:25:00,
2013-03-22 19:30:00,71.2,61.7,29.97,ENE,77,3.0,5.0,72,0.00,,,0.00,VWS V14.01,2013-03-23 00:30:00,
2013-03-22 19:35:00,71.2,61.7,29.96,ESE,106,6.0,9.0,72,0.00,,,0.00,VWS V14.01,2013-03-23 00:35:00,
2013-03-22 19:40:00,71.3,62.2,29.96,East,91,4.0,9.0,73,0.00,,,0.00,VWS V14.01,2013-03-23 00:40:00,
2013-03-22 19:45:00,71.3,62.2,29.96,ESE,105,5.0,9.0,73,0.00,,,0.00,VWS V14.01,2013-03-23 00:45:00,
2013-03-22 19:50:00,71.3,62.6,29.97,East,95,5.0,9.0,74,0.00,,,0.00,VWS V14.01,2013-03-23 00:50:00,
2013-03-22 19:55:00,71.4,62.7,29.97,ESE,110,3.0,9.0,74,0.00,,,0.00,VWS V14.01,2013-03-23 00:55:00,
2013-03-22 20:00:00,71.4,62.7,29.97,ESE,105,5.0,5.0,74,0.00,,,0.00,VWS V14.01,2013-03-23 01:00:00,
2013-03-22 20:05:00,71.5,62.8,29.97,ESE,119,5.0,9.0,74,0.00,,,0.00,VWS V14.01,2013-03-23 01:05:00,
2013-03-22 20:10:00,71.4,63.1,29.97,ESE,117,4.0,9.0,75,0.00,,,0.00,VWS V14.01,2013-03-23 01:10:00,
2013-03-22 20:15:00,71.4,63.1,29.98,ESE,123,5.0,9.0,75,0.00,,,0.00,VWS V14.01,2013-03-23 01:15:00,
2013-03-22 20:20:00,71.5,63.2,29.98,East,96,4.0,9.0,75,0.00,,,0.00,VWS V14.01,2013-03-23 01:20:00,
2013-03-22 20:25:00,71.4,63.5,29.98,ESE,115,3.0,9.0,76,0.00,,,0.00,VWS V14.01,2013-03-23 01:25:00,
2013-03-22 20:30:00,71.5,63.5,29.97,ESE,109,3.0,7.0,76,0.00,,,0.00,VWS V14.01,2013-03-23 01:30:00,
2013-03-22 20:35:00,71.5,63.5,29.98,SE,134,1.0,7.0,76,0.00,,,0.00,VWS V14.01,2013-03-23 01:35:00,
2013-03-22 20:40:00,71.5,63.5,29.98,ESE,123,5.0,8.0,76,0.00,,,0.00,VWS V14.01,2013-03-23 01:40:00,
2013-03-22 20:45:00,71.6,63.6,29.98,East,88,4.0,9.0,76,0.00,,,0.00,VWS V14.01,2013-03-23 01:45:00,
2013-03-22 20:50:00,71.7,64.1,29.98,ESE,103,4.0,9.0,77,0.00,,,0.00,VWS V14.01,2013-03-23 01:50:00,
2013-03-22 20:55:00,71.6,64.0,29.98,ESE,103,4.0,9.0,77,0.00,,,0.00,VWS V14.01,2013-03-23 01:55:00,
2013-03-22 21:00:00,71.6,64.4,29.97,East,93,7.0,7.0,78,0.00,,,0.00,VWS V14.01,2013-03-23 02:00:00,
2013-03-22 21:05:00,71.6,64.4,29.98,East,100,3.0,9.0,78,0.00,,,0.00,VWS V14.01,2013-03-23 02:05:00,
2013-03-22 21:10:00,71.6,64.4,29.98,East,98,8.0,9.0,78,0.00,,,0.00,VWS V14.01,2013-03-23 02:10:00,
2013-03-22 21:15:00,71.7,64.8,29.97,SE,136,2.0,9.0,79,0.00,,,0.00,VWS V14.01,2013-03-23 02:15:00,
2013-03-22 21:20:00,71.7,65.2,29.98,ESE,105,5.0,9.0,80,0.00,,,0.00,VWS V14.01,2013-03-23 02:20:00,
2013-03-22 21:25:00,71.7,65.2,29.98,SE,129,5.0,9.0,80,0.00,,,0.00,VWS V14.01,2013-03-23 02:25:00,
2013-03-22 21:30:00,71.6,65.1,29.99,ESE,107,4.0,6.0,80,0.00,,,0.00,VWS V14.01,2013-03-23 02:30:00,
2013-03-22 21:35:00,71.6,65.1,29.98,East,91,5.0,9.0,80,0.00,,,0.00,VWS V14.01,2013-03-23 02:35:00,
2013-03-22 21:40:00,71.6,65.5,29.98,East,91,4.0,9.0,81,0.00,,,0.00,VWS V14.01,2013-03-23 02:40:00,
2013-03-22 21:45:00,71.6,65.5,29.99,East,84,1.0,9.0,81,0.00,,,0.00,VWS V14.01,2013-03-23 02:45:00,
2013-03-22 22:00:00,71.3,65.9,29.99,East,90,4.0,10.0,83,0.00,,,0.00,VWS V14.01,2013-03-23 03:00:00,
2013-03-22 22:30:00,69.1,66.4,29.99,ESE,112,6.0,11.0,91,0.01,,,0.01,VWS V14.01,2013-03-23 03:30:00,
2013-03-22 23:00:00,68.6,67.1,29.98,East,90,4.0,10.0,95,0.05,,,0.04,VWS V14.01,2013-03-23 04:00:00,
2013-03-22 23:30:00,68.7,67.5,29.97,SE,135,5.0,11.0,96,0.06,,,0.05,VWS V14.01,2013-03-23 04:30:00,